TimeCST,TemperatureF,Dew PointF,Humidity,Sea Level PressureIn,VisibilityMPH,Wind Direction,Wind SpeedMPH,Gust SpeedMPH,PrecipitationIn,Events,Conditions,WindDirDegrees,DateUTC
12:56 AM,32.0,26.1,79,30.13,10.0,Calm,Calm,-,N/A,,Clear,0,2013-03-04 06:56:00
1:56 AM,30.0,26.1,85,30.12,10.0,Calm,Calm,-,N/A,,Clear,0,2013-03-04 07:56:00
2:56 AM,30.9,26.1,82,30.12,10.0,Calm,Calm,-,N/A,,Clear,0,2013-03-04 08:56:00
3:56 AM,30.9,27.0,85,30.11,10.0,Calm,Calm,-,N/A,,Clear,0,2013-03-04 09:56:00
4:56 AM,30.9,26.1,82,30.12,10.0,Calm,Calm,-,0.00,,Clear,0,2013-03-04 10:56:00
5:56 AM,30.0,25.0,82,30.13,10.0,Calm,Calm,-,N/A,,Partly Cloudy,0,2013-03-04 11:56:00
6:56 AM,34.0,28.9,82,30.15,10.0,Calm,Calm,-,N/A,,Partly Cloudy,0,2013-03-04 12:56:00
7:56 AM,45.0,30.9,58,30.17,10.0,Calm,Calm,-,N/A,,Partly Cloudy,0,2013-03-04 13:56:00
8:56 AM,52.0,28.9,41,30.18,10.0,South,4.6,-,N/A,,Partly Cloudy,170,2013-03-04 14:56:00
9:56 AM,57.9,35.1,42,30.16,10.0,SSE,8.1,16.1,N/A,,Partly Cloudy,160,2013-03-04 15:56:00
10:56 AM,60.1,36.0,41,30.16,10.0,South,15.0,-,N/A,,Partly Cloudy,190,2013-03-04 16:56:00
11:56 AM,62.1,37.9,41,30.14,10.0,South,12.7,-,N/A,,Partly Cloudy,180,2013-03-04 17:56:00
12:56 PM,63.0,39.9,43,30.11,10.0,South,15.0,21.9,N/A,,Scattered Clouds,190,2013-03-04 18:56:00
1:56 PM,64.0,41.0,43,30.07,10.0,SSW,13.8,23.0,N/A,,Scattered Clouds,200,2013-03-04 19:56:00
2:56 PM,63.0,43.0,48,30.07,10.0,South,16.1,24.2,N/A,,Scattered Clouds,180,2013-03-04 20:56:00
3:56 PM,61.0,44.1,54,30.06,10.0,South,15.0,23.0,N/A,,Scattered Clouds,170,2013-03-04 21:56:00
4:56 PM,59.0,46.0,62,30.06,10.0,South,13.8,-,N/A,,Mostly Cloudy,170,2013-03-04 22:56:00
5:56 PM,57.9,45.0,62,30.06,10.0,SSE,12.7,-,N/A,,Mostly Cloudy,150,2013-03-04 23:56:00
6:56 PM,55.9,46.0,69,30.04,10.0,SSE,8.1,-,N/A,,Mostly Cloudy,150,2013-03-05 00:56:00
7:56 PM,55.9,46.9,72,30.03,10.0,SSE,8.1,-,N/A,,Mostly Cloudy,150,2013-03-05 01:56:00
8:56 PM,55.9,48.0,75,30.01,10.0,SSE,6.9,-,N/A,,Mostly Cloudy,150,2013-03-05 02:56:00
9:56 PM,57.0,48.9,74,30.01,10.0,SSE,4.6,-,N/A,,Overcast,160,2013-03-05 03:56:00
10:56 PM,59.0,52.0,78,29.99,10.0,South,12.7,-,N/A,,Overcast,170,2013-03-05 04:56:00
11:03 PM,59.0,53.6,82,30.03,10.0,South,11.5,-,N/A,,Partly Cloudy,170,2013-03-05 05:03:00
11:56 PM,59.0,54.0,83,29.98,10.0,South,9.2,-,N/A,,Partly Cloudy,180,2013-03-05 05:56:00